(318775) = 2005 SF90

Discovered at Kitt Peak on 2005-09-24 by Spacewatch.

Orbit

Orbit type: Main Belt

Note: WebGL enabled browser required.

epoch2024-03-31.0
epoch JD2460400.5
perihelion date2023-02-19.22413
perihelion JD2459994.72413
argument of perihelion (°)343.36337
ascending node (°)0.46200
inclination (°)1.99315
eccentricity0.0937579
perihelion distance (AU)2.4513958
Tisserand w.r.t. Jupiter3.4
ΔV w.r.t. Earth (km/sec)9.8
semimajor axis (AU)2.7050120
mean anomaly (°)89.89515
mean daily motion (°/day)0.22153890
aphelion distance (AU)2.959
period (years)4.45
P-vector [x]0.96041574
P-vector [y]-0.25145937
P-vector [z]-0.11987409
Q-vector [x]0.27857052
Q-vector [y]0.86737811
Q-vector [z]0.41237565
absolute magnitude16.78
phase slope0.15
uncertainty0
referenceMPEC 2024-C60
observations used338
oppositions17
arc length (days)8083
first opposition used2001
last opposition used2024
residual rms (arc-secs)0.76
perturbers coarse indicatorM-v
perturbers precise indicator003Ek
first observation date used2001-12-19.0
last observation date used2024-02-05.0
computer nameMPCLINUX
JD of orbit computation2456966.714175
perihelion JD uncertainty (days)1.6743E-04
argument of perihelion uncertainty (°)1.5871E-04
ascending node uncertainty (°)1.5393E-04
inclination uncertainty (°)7.1100E-06
eccentricity uncertainty 6.0439E-08
perihelion distance uncertainty (AU)1.6835E-07
Minimum Orbit Intersection Distances (in AU)
for orbit epoch: 2460200.5, reference: E2024-C60
Mercury2.05861
Venus1.72741
Earth1.44535
Mars1.07003
Jupiter2.37524
Saturn6.23894
Uranus15.4866
Neptune27.2723

Observations

347 total observations over interval: 2001 12 19.29792 – 2024 02 05.146240
These data are available for download (format description).

Date (UT) J2000 RA J2000 Dec Magn Location Ref
2001 12 19.29792 05 07 54.86 +25 59 32.6 20.1   704 – Lincoln Laboratory ETS, New Mexico MPS 155982
2001 12 19.31322 05 07 53.92 +25 59 29.7 20.3   704 – Lincoln Laboratory ETS, New Mexico MPS 155982
2001 12 19.32836 05 07 53.02 +25 59 29.2 20.4   704 – Lincoln Laboratory ETS, New Mexico MPS 155982
2001 12 19.34362 05 07 51.99 +25 59 28.0 20.2   704 – Lincoln Laboratory ETS, New Mexico MPS 155982
2001 12 19.35926 05 07 51.08 +25 59 26.6 20.1   704 – Lincoln Laboratory ETS, New Mexico MPS 155982
2003 03 08.31586 11 20 27.84 +04 57 10.6 21.6 V 291 – LPL/Spacewatch II MPS 155982
2003 03 08.33985 11 20 26.57 +04 57 17.6 21.2 V 291 – LPL/Spacewatch II MPS 155982
2003 03 08.36344 11 20 25.28 +04 57 24.2 21.8 V 291 – LPL/Spacewatch II MPS 155982
2005 09 24.41368 02 08 04.55 +14 09 05.8 20.4 V 691 – Steward Observatory, Kitt Peak-Spacewatch MPS 144226
2005 09 24.43109 02 08 03.97 +14 09 04.2 20.6 V 691 – Steward Observatory, Kitt Peak-Spacewatch MPS 144226
2005 09 24.44850 02 08 03.40 +14 09 02.8 20.5 V 691 – Steward Observatory, Kitt Peak-Spacewatch MPS 144226
2005 09 30.35264 02 04 31.13 +13 57 07.3 20.4 V 691 – Steward Observatory, Kitt Peak-Spacewatch MPS 144226
2005 09 30.37007 02 04 30.38 +13 57 04.7 20.5 V 691 – Steward Observatory, Kitt Peak-Spacewatch MPS 144226
2005 09 30.38746 02 04 29.62 +13 57 02.3 20.3 V 691 – Steward Observatory, Kitt Peak-Spacewatch MPS 144226
2005 10 02.46296 02 03 03.67 +13 51 46.2 19.2 V G96 – Mt. Lemmon Survey MPS 144226
2005 10 02.46927 02 03 03.45 +13 51 45.3 19.2 V G96 – Mt. Lemmon Survey MPS 144226
2005 10 02.47556 02 03 03.16 +13 51 43.9 19.4 V G96 – Mt. Lemmon Survey MPS 144226
2005 10 02.48188 02 03 02.88 +13 51 42.7 19.7 V G96 – Mt. Lemmon Survey MPS 144226
2005 10 07.33306 01 59 23.56 +13 37 25.9 20.3 V 691 – Steward Observatory, Kitt Peak-Spacewatch MPS 144226
2005 10 07.35037 01 59 22.69 +13 37 22.5 20.3 V 691 – Steward Observatory, Kitt Peak-Spacewatch MPS 144226
2005 10 07.36782 01 59 21.83 +13 37 19.0 20.3 V 691 – Steward Observatory, Kitt Peak-Spacewatch MPS 144226
2005 10 11.33372 01 56 06.22 +13 23 49.0 20.1 V 691 – Steward Observatory, Kitt Peak-Spacewatch MPS 144226
2005 10 11.35107 01 56 05.33 +13 23 45.2 20.1 V 691 – Steward Observatory, Kitt Peak-Spacewatch MPS 144226
2005 10 11.36851 01 56 04.39 +13 23 41.3 20.2 V 691 – Steward Observatory, Kitt Peak-Spacewatch MPS 144226
2005 10 22.11883 01 46 35.12 +12 41 17.9 19.8 V 691 – Steward Observatory, Kitt Peak-Spacewatch MPS 146167
2005 10 22.13421 01 46 34.29 +12 41 14.0 19.9 V 691 – Steward Observatory, Kitt Peak-Spacewatch MPS 146167
2005 10 22.14967 01 46 33.45 +12 41 10.3 19.8 V 691 – Steward Observatory, Kitt Peak-Spacewatch MPS 146167
2005 10 22.31209 01 46 24.34 +12 40 30.5 19.2 V 703 – Catalina Sky Survey MPS 146167
2005 10 22.32159 01 46 23.84 +12 40 26.6 19.2 V 703 – Catalina Sky Survey MPS 146167
2005 10 22.33104 01 46 23.34 +12 40 24.6 19.0 V 703 – Catalina Sky Survey MPS 146167
2005 10 22.34051 01 46 22.83 +12 40 24.0 18.6 V 703 – Catalina Sky Survey MPS 146167
2005 10 23.31285 01 45 30.56 +12 36 17.1 19.5 V 703 – Catalina Sky Survey MPS 146167
2005 10 23.32265 01 45 30.02 +12 36 15.2 19.6 V 703 – Catalina Sky Survey MPS 146167
2005 10 23.33257 01 45 29.44 +12 36 12.7 19.2 V 703 – Catalina Sky Survey MPS 146167
2005 10 23.34241 01 45 28.69 +12 36 09.5 17.8 V 703 – Catalina Sky Survey MPS 146167
2005 10 27.26601 01 42 00.21 +12 19 30.6 20.0 V G96 – Mt. Lemmon Survey MPS 146167
2005 10 27.27372 01 41 59.82 +12 19 29.4 19.7 V G96 – Mt. Lemmon Survey MPS 146167
2005 10 27.28141 01 41 59.38 +12 19 26.7 19.9 V G96 – Mt. Lemmon Survey MPS 146167
2005 10 29.31735 01 40 13.36 +12 10 49.8 20.0 V 703 – Catalina Sky Survey MPS 147557
2005 10 29.32485 01 40 13.00 +12 10 47.4 20.6 V 703 – Catalina Sky Survey MPS 147557
2005 10 29.33246 01 40 12.54 +12 10 47.7 19.9 V 703 – Catalina Sky Survey MPS 147557
2005 10 29.33999 01 40 12.21 +12 10 44.7 20.0 V 703 – Catalina Sky Survey MPS 147557
2005 10 30.12294 01 39 32.48 +12 07 26.1 20.2 V 691 – Steward Observatory, Kitt Peak-Spacewatch MPS 147557
2005 10 30.13839 01 39 31.67 +12 07 22.0 20.0 V 691 – Steward Observatory, Kitt Peak-Spacewatch MPS 147557
2005 10 30.15387 01 39 30.87 +12 07 18.7 20.0 V 691 – Steward Observatory, Kitt Peak-Spacewatch MPS 147557
2007 01 25.29111 09 04 01.97 +19 11 23.3 20.6 V 691 – Steward Observatory, Kitt Peak-Spacewatch MPS 197067
2007 01 25.30889 09 04 01.01 +19 11 27.2 21.2 V 691 – Steward Observatory, Kitt Peak-Spacewatch MPS 197067
2007 01 25.32698 09 03 59.94 +19 11 31.2 21.0 V 691 – Steward Observatory, Kitt Peak-Spacewatch MPS 197067
2007 03 11.25815 08 29 47.50 +20 52 42.3 21.2 V G96 – Mt. Lemmon Survey MPS 203082
2007 03 11.26549 08 29 47.36 +20 52 41.9 22.0 V G96 – Mt. Lemmon Survey MPS 203082
2007 03 11.27282 08 29 47.14 +20 52 41.8 22.8 V G96 – Mt. Lemmon Survey MPS 203082
2007 03 11.28008 08 29 47.04 +20 52 42.3 22.2 V G96 – Mt. Lemmon Survey MPS 203082
2008 03 31.40253 14 32 51.43 -16 34 31.3 21.0 V G96 – Mt. Lemmon Survey MPS 244711
2008 03 31.40817 14 32 51.21 -16 34 30.3 20.9 V G96 – Mt. Lemmon Survey MPS 244711
2008 03 31.41380 14 32 51.00 -16 34 30.0 20.8 V G96 – Mt. Lemmon Survey MPS 244711
2008 03 31.41936 14 32 50.78 -16 34 29.6 20.6 V G96 – Mt. Lemmon Survey MPS 244711
2009 08 19.94383 22 13 50.08 -12 51 57.6 19.6 V J75 – OAM Observatory, La Sagra MPS 291744
2009 08 19.95610 22 13 49.44 -12 52 00.4 19.8 V J75 – OAM Observatory, La Sagra MPS 291744
2009 08 19.96841 22 13 48.75 -12 52 03.8 19.7 V J75 – OAM Observatory, La Sagra MPS 291744
2009 08 20.93704 22 12 58.91 -12 55 53.0 19.1 V J75 – OAM Observatory, La Sagra MPS 292620
2009 08 20.94936 22 12 58.26 -12 55 56.3 19.3 V J75 – OAM Observatory, La Sagra MPS 292620
2009 08 20.96171 22 12 57.64 -12 55 59.4 19.6 V J75 – OAM Observatory, La Sagra MPS 292620
2009 08 25.89227 22 08 41.99 -13 15 07.0 19.4 V J75 – OAM Observatory, La Sagra MPS 292620
2009 08 25.90473 22 08 41.28 -13 15 10.6 19.7 V J75 – OAM Observatory, La Sagra MPS 292620
2009 08 25.91718 22 08 40.64 -13 15 12.9 19.8 V J75 – OAM Observatory, La Sagra MPS 292620
2009 09 26.21010 21 48 03.60 -14 28 53.7 20.2 V G96 – Mt. Lemmon Survey MPS 296927
2009 09 26.21635 21 48 03.45 -14 28 53.9 20.6 V G96 – Mt. Lemmon Survey MPS 296927
2009 09 26.22250 21 48 03.31 -14 28 54.1 20.6 V G96 – Mt. Lemmon Survey MPS 296927
2009 09 26.22882 21 48 03.16 -14 28 53.9 20.7 V G96 – Mt. Lemmon Survey MPS 296927
2010 12 09.24680 06 16 01.02 +26 27 39.0 20.5 V 691 – Steward Observatory, Kitt Peak-Spacewatch MPS 358891
2010 12 09.25958 06 16 00.26 +26 27 41.2 20.9 V 691 – Steward Observatory, Kitt Peak-Spacewatch MPS 358891
2010 12 09.27239 06 15 59.55 +26 27 41.9 20.8 V 691 – Steward Observatory, Kitt Peak-Spacewatch MPS 358891
2012 03 13.36117 11 53 36.02 +00 56 03.4 20.6 V G96 – Mt. Lemmon Survey MPS 417172
2012 03 13.37037 11 53 35.52 +00 56 06.4 20.4 V G96 – Mt. Lemmon Survey MPS 417172
2012 03 13.37957 11 53 35.05 +00 56 08.6 20.9 V G96 – Mt. Lemmon Survey MPS 417172
2012 03 13.38889 11 53 34.54 +00 56 12.1 20.2 V G96 – Mt. Lemmon Survey MPS 417172
2012 04 18.16994 11 27 20.84 +03 23 22.2 21.4 V G96 – Mt. Lemmon Survey MPS 421812
2012 04 18.17693 11 27 20.59 +03 23 23.7 21.0 V G96 – Mt. Lemmon Survey MPS 421812
2012 04 18.18422 11 27 20.41 +03 23 24.7 21.0 V G96 – Mt. Lemmon Survey MPS 421812
2012 04 18.19113 11 27 20.23 +03 23 25.1 21.4 V G96 – Mt. Lemmon Survey MPS 421812
2013 07 06.38202 18 02 53.198 -26 41 10.04 20.6 g F51 – Pan-STARRS 1, Haleakala MPS 472060
2013 07 06.39031 18 02 52.706 -26 41 09.87 20.6 g F51 – Pan-STARRS 1, Haleakala MPS 472060
2013 07 06.39969 18 02 52.186 -26 41 09.97 20.6 g F51 – Pan-STARRS 1, Haleakala MPS 472060
2013 07 06.40098 18 02 52.086 -26 41 09.76 20.7 g F51 – Pan-STARRS 1, Haleakala MPS 472060
2014 09 24.40507 03 03 23.06 +18 50 25.2 20.3 V G96 – Mt. Lemmon Survey MPS 536276
2014 09 24.41117 03 03 22.97 +18 50 25.1 20.5 V G96 – Mt. Lemmon Survey MPS 536276
2014 09 24.41726 03 03 22.90 +18 50 25.2 20.5 V G96 – Mt. Lemmon Survey MPS 536276
2014 09 24.42337 03 03 22.84 +18 50 25.3 20.2 V G96 – Mt. Lemmon Survey MPS 536276
2014 09 30.42344 03 01 39.75 +18 50 23.5 20.5 V 703 – Catalina Sky Survey MPS 538677
